"Pseudo-MPEC" for P20JHf2

Created 2018 Oct 13 14:18:11 UT using Find_Orb

Click here for an explanation of pseudo-MPECs

 
 Astrometry: 
     P20JHf2  C2018 10 10)hAstrometryE%S9OVwH^V/1Zm^@3+Eb)aAC^lLe4LjhejqvA?4wF52
     P20JHf2  C2018 10 10(E1O]RBw$K9[l\?9b^'4NITrtP:nkv=#/Bv,GGy(m5!`x`h2hk@aF52
     P20JHf2  C2018 10 10fJUZh0+W6_fY[M\Lb*b=j:#2F$G-Dq$:4Et%_`^@gW:ZaVw+pUvUF52
     P20JHf2  C2018 10 10vCb@oXx/Nf.km=)h*!ED[`3kJBcGw9j93_K1HyRWCJs'l#(7QVQwF52
     P20JHf2 KC2018 10 11'M`NJTr=g2hSZg+kCredacted;(/.@lv0+R;(YhCa8wZUlCqdr.+K88
     P20JHf2 KC2018 10 11h$nPx`*tJ6Mer`S;HEl(T1NQ\._$DH(ly'-]UWs(Cliva7B.sP?GK88
     P20JHf2 KC2018 10 11(!/D:jH88*_kelOA##FHlw0]sVI7WQlAua1wSI\8o!^xBb.Il_3*K88
     P20JHf2 KC2018 10 11X+:(vL3Bmc)$:7'v)PxhNtPOt8RAR?%0$?lTEvlCZJ]qR4T\fB1`L01
     P20JHf2 KC2018 10 11L:5?l0qe5[i.NCT.sFQSqh$#Y_hUJO(dsee!VNru=SdK[aYC[NhQL01
     P20JHf2 KC2018 10 11=m.?mb[rkc\/dm76hTD-YYn9#)s+LJH?XBy%*ZwuxZ^'uSo)QVb0L01
     P20JHf2  C2018 10 12%!3.t?ZDASV=R6Gggve!Z'(/4x8eT!vYcBQ\VOXd,upvC]cse.*mD29
     P20JHf2  C2018 10 12=rE0^T1Z3gw/Z@H8*T3*08m^:XlxLcqqs/K*C9L@DTBlFL4'*D?xD29
     P20JHf2  C2018 10 12\30N2\8].1F3piv/)@KgdRgx3LwR$Y?4.+qBYehl[WMWAVRNEOCPD29

Station data:
(D29) Purple Mountain Observatory, XuYi Station  (N32.734366 E118.463900)
   China.  Observers H. B. Zhao, B. Li, G. Zhaori, R. Q. Hong, L. F. Hu.
   Measurers H. B. Zhao, B. Li. H. Lu, G. Zhaori. 1.04-m f/1.8 Schmidt + CCD.
(F52) Pan-STARRS 2, Haleakala  (N20.707384 W156.255910)  US/Hawaii.
(K88) GINOP-KHK, Piszkéstető  (N47.917622 E19.893600)  Hungary.  Observer K.
   Sárneczky. 0.60-m Schmidt + CCD.
(L01) Višnjan Observatory, Tičan  (N45.290900 E13.749300)  Croatia.  Observer
   K. Korlević. 1.0-m f/2.9 reflector + CCD.

Orbital elements:  P20JHf2
   Perihelion 2018 Oct 26.180823 +/- 1.92 TT =  4:20:23 (JD 2458417.680823)
Epoch 2018 Oct 12.0 TT = JDT 2458403.5   Earth MOID: 0.2869   Ma: 0.0833
M 353.08411 +/- 0.9                 (J2000 ecliptic)          AutoNEOCP
n   0.48769264 +/- 0.00422          Peri.    6.76447 +/- 1.4
a   1.59847277 +/- 0.00922          Node    29.43251 +/- 0.049
e   0.1988538 +/- 0.003             Incl.    7.53740 +/- 0.09
P   2.02/738.16d           H 21.6   G  0.15   U  9.1  
q 1.28061035 +/- 0.003    Q 1.91633518 +/- 0.0157
From 13 observations 2018 Oct. 10-12; mean residual 0".21
Residuals in arcseconds: 
181010 F52  .06+  .10-    181011 K88  .25-  .09+    181012 D29  .03+  .11-    
181010 F52  .06+  .15-    181011 K88  .27-  .29+    181012 D29  .31+  .03-    
181010 F52  .20+  .02+    181011 L01  .10-  .36-    181012 D29  .35-  .30+    
181010 F52  .20+  .12-    181011 L01  .15+  .20-    
181011 K88  .25-  .28+    181011 L01  .26+  .05+    

Ephemerides (geocentric):
Date (UTC) HH   RA              Dec         delta   r     elong  mag " sig PA
---- -- -- --  -------------   -----------  ------ ------ -----  --- ---- ---
2018 10 13 14  03 08 25.253   +16 11 16.96  .31678 1.2834 150.7 20.7  .36  58
2018 10 13 15  03 08 24.544   +16 12 13.93  .31669 1.2834 150.8 20.7  .39  57
2018 10 13 16  03 08 23.829   +16 13 10.92  .31659 1.2834 150.8 20.7  .41  56
2018 10 13 17  03 08 23.108   +16 14 07.92  .31649 1.2834 150.9 20.7  .44  55
2018 10 13 18  03 08 22.380   +16 15 04.94  .31639 1.2834 150.9 20.7  .46  54
2018 10 13 19  03 08 21.646   +16 16 01.97  .31629 1.2834 150.9 20.7  .49  54
2018 10 13 20  03 08 20.906   +16 16 59.02  .31619 1.2833 151.0 20.7  .52  53
2018 10 13 21  03 08 20.159   +16 17 56.09  .31610 1.2833 151.0 20.7  .55  52
2018 10 13 22  03 08 19.406   +16 18 53.17  .31600 1.2833 151.1 20.7  .57  52
2018 10 13 23  03 08 18.646   +16 19 50.26  .31590 1.2833 151.1 20.7  .60  51
2018 10 14 00  03 08 17.880   +16 20 47.37  .31581 1.2833 151.1 20.7  .63  51
2018 10 14 01  03 08 17.108   +16 21 44.50  .31571 1.2832 151.2 20.7  .66  51
2018 10 14 02  03 08 16.329   +16 22 41.64  .31561 1.2832 151.2 20.7  .69  50
2018 10 14 03  03 08 15.544   +16 23 38.79  .31552 1.2832 151.3 20.7  .73  50
2018 10 14 04  03 08 14.753   +16 24 35.96  .31542 1.2832 151.3 20.7  .76  49
2018 10 14 05  03 08 13.955   +16 25 33.14  .31532 1.2832 151.3 20.7  .79  49
2018 10 14 06  03 08 13.151   +16 26 30.34  .31523 1.2832 151.4 20.7  .82  49
2018 10 14 07  03 08 12.341   +16 27 27.56  .31513 1.2831 151.4 20.7  .86  48
2018 10 14 08  03 08 11.524   +16 28 24.78  .31504 1.2831 151.5 20.7  .89  48
2018 10 14 09  03 08 10.701   +16 29 22.02  .31494 1.2831 151.5 20.7  .93  48
2018 10 14 10  03 08 09.871   +16 30 19.28  .31485 1.2831 151.5 20.7  .96  48
2018 10 14 11  03 08 09.036   +16 31 16.55  .31475 1.2831 151.6 20.7  1.0  47
2018 10 14 12  03 08 08.194   +16 32 13.83  .31466 1.2831 151.6 20.7  1.0  47
2018 10 14 13  03 08 07.345   +16 33 11.13  .31456 1.2830 151.7 20.7  1.1  47
2018 10 14 14  03 08 06.490   +16 34 08.45  .31447 1.2830 151.7 20.7  1.1  47
2018 10 14 15  03 08 05.629   +16 35 05.77  .31437 1.2830 151.7 20.7  1.1  46
2018 10 14 16  03 08 04.762   +16 36 03.11  .31428 1.2830 151.8 20.7  1.2  46
2018 10 14 17  03 08 03.888   +16 37 00.47  .31418 1.2830 151.8 20.7  1.2  46
2018 10 14 18  03 08 03.008   +16 37 57.83  .31409 1.2829 151.9 20.7  1.3  46
2018 10 14 19  03 08 02.121   +16 38 55.21  .31400 1.2829 151.9 20.7  1.3  46
2018 10 14 20  03 08 01.228   +16 39 52.61  .31390 1.2829 152.0 20.7  1.3  45
2018 10 14 21  03 08 00.329   +16 40 50.02  .31381 1.2829 152.0 20.7  1.4  45
2018 10 14 22  03 07 59.424   +16 41 47.44  .31372 1.2829 152.0 20.7  1.4  45
2018 10 14 23  03 07 58.512   +16 42 44.88  .31363 1.2829 152.1 20.7  1.5  45
2018 10 15 00  03 07 57.594   +16 43 42.32  .31353 1.2828 152.1 20.7  1.5  45
2018 10 15 01  03 07 56.670   +16 44 39.79  .31344 1.2828 152.2 20.7  1.6  45
2018 10 15 02  03 07 55.739   +16 45 37.26  .31335 1.2828 152.2 20.7  1.6  44
2018 10 15 03  03 07 54.802   +16 46 34.75  .31326 1.2828 152.2 20.7  1.6  44
2018 10 15 04  03 07 53.859   +16 47 32.25  .31317 1.2828 152.3 20.7  1.7  44
2018 10 15 05  03 07 52.910   +16 48 29.76  .31307 1.2828 152.3 20.7  1.7  44
2018 10 15 06  03 07 51.954   +16 49 27.29  .31298 1.2827 152.4 20.6  1.8  44
2018 10 15 07  03 07 50.992   +16 50 24.83  .31289 1.2827 152.4 20.6  1.8  44
2018 10 15 08  03 07 50.024   +16 51 22.38  .31280 1.2827 152.4 20.6  1.9  44
2018 10 15 09  03 07 49.049   +16 52 19.95  .31271 1.2827 152.5 20.6  1.9  43
2018 10 15 10  03 07 48.068   +16 53 17.53  .31262 1.2827 152.5 20.6  2.0  43
2018 10 15 11  03 07 47.081   +16 54 15.12  .31253 1.2827 152.6 20.6  2.0  43
2018 10 15 12  03 07 46.087   +16 55 12.72  .31244 1.2827 152.6 20.6  2.1  43
2018 10 15 13  03 07 45.088   +16 56 10.33  .31235 1.2826 152.6 20.6  2.1  43